Flag for Norway Weather past 2 weeks in Longyearbyen, Svalbard, Norway

Now
39 °F

Passing clouds.


Feels Like: 35 °F
Forecast: 29 / 43 °F
Wind: 6 mph from West

Location: Svalbard Lufthavn

Current Time: Sep 1, 2014 at 4:33:32 PM

Latest Report: Sep 1, 2014 at 3:50 PM


Visibility: N/A

Pressure: 29.89 "Hg

Humidity: 65%

Dew point: 28 °F

Location of LongyearbyenLocation

Historic Weather in Longyearbyen — Graph

°F

Longyearbyen temperature yesterday

Maximum temperature yesterday: 39 °F (at 5:50 AM)
Minimum temperature yesterday: 36 °F (at 12:50 AM)
Average temperature yesterday: 37 °F

Past Weeks' High & Low Weather Summary

 TemperatureHumidityPressure
High54 °F (Aug 22, 4:50 PM)93% (Aug 21, 4:50 AM)30.09 "Hg (Aug 21, 4:50 AM)
Low34 °F (Aug 27, 4:50 AM)41% (Aug 22, 4:50 PM)29.71 "Hg (Aug 22, 2:50 PM)
Average42 °F72%29.87 "Hg
* Reported Aug 17 2:02 PM — Sep 1 2:50 PM, Longyearbyen, Weather by CustomWeather, © 2014

Note: Actual official high and low records may vary slightly from our data, if they occured in-between our weather recording intervals... More about our weather records

Advertising

Longyearbyen weather history for previous 24 hours

 ConditionsComfort  
Time TempWeatherWind HumidityBarometerVisibility
2:50 PM
Sep 1
39 °FPassing clouds.5 mph65%29.89 "HgN/A
1:50 PM39 °FPassing clouds.5 mph65%29.89 "HgN/A
12:50 PM39 °FPassing clouds.3 mph61%29.89 "HgN/A
11:50 AM39 °FScattered clouds.5 mph65%29.89 "HgN/A
10:50 AM37 °FScattered clouds.5 mph65%29.89 "HgN/A
9:50 AM37 °FScattered clouds.8 mph70%29.86 "HgN/A
8:50 AM36 °FPassing clouds.3 mph75%29.86 "HgN/A
7:50 AM37 °FPartly sunny.6 mph70%29.86 "HgN/A
6:50 AM37 °FPartly sunny.7 mph70%29.86 "HgN/A
5:50 AM36 °FScattered clouds.6 mph75%29.86 "HgN/A
4:50 AM36 °FScattered clouds.9 mph75%29.86 "HgN/A
3:50 AM37 °FPassing clouds.8 mph70%29.86 "HgN/A
2:50 AM36 °FScattered showers. Passing clouds.12 mph81%29.86 "HgN/A
1:50 AM37 °FScattered showers. Partly cloudy.7 mph75%29.86 "HgN/A
1:01 AM37 °FScattered showers. Partly cloudy.8 mph75%29.86 "HgN/A
12:20 AM37 °FSleet. Partly cloudy.15 mph75%29.86 "HgN/A
11:50 PM
Aug 31
37 °FPartly cloudy.12 mph75%29.86 "HgN/A
10:50 PM36 °FMore clouds than sun.8 mph81%29.86 "HgN/A
9:50 PM37 °FBroken clouds.13 mph70%29.86 "HgN/A
8:50 PM36 °FBroken clouds.13 mph81%29.86 "HgN/A
7:50 PM36 °FSprinkles. Broken clouds.18 mph81%29.86 "HgN/A
6:50 PM37 °FLight rain. Partly sunny.18 mph70%29.89 "HgN/A
5:50 PM37 °FPartly sunny.12 mph70%29.89 "HgN/A
4:50 PM37 °FPartly sunny.15 mph75%29.89 "HgN/A
Weather by CustomWeather, © 2014

See weather overviewHow to use our weather pages